Simultaneous Nadir Overpasses (SNOs) Predictions

Prediction of SNOs between GOES-17 and METOP-C Satellite Orbit:

Table of predicted SNOs for the next 14.0 days since TLE Epoch: 5/7/2022
Index Date Time (GOES-17) GOES-17 Lat,Lon METOP-C Lat,Lon Distance(km) Time Diff (sec)
1 05/08/2022 18:39:52 0.05,-137.19 -0.04,-136.83 40.97 80
2 05/10/2022 06:58:51 -0.04,-137.19 -1.01,-141.42 482.59 80
3 05/11/2022 06:35:32 -0.04,-137.19 0.14,-136.43 86.44 80
4 05/12/2022 18:54:21 0.04,-137.18 0.91,-140.98 433.92 80
5 05/13/2022 18:36:22 0.04,-137.17 -0.24,-135.99 134.85 80
6 05/15/2022 06:52:41 -0.04,-137.16 -0.81,-140.58 389.92 80
7 05/16/2022 06:32:02 -0.03,-137.15 0.34,-135.59 178.14 80
8 05/17/2022 18:50:51 0.03,-137.12 0.69,-140.14 344.07 80
9 05/18/2022 18:32:50 0.02,-137.11 -0.41,-135.14 223.34 80
10 05/20/2022 06:49:11 -0.02,-137.08 -0.59,-139.75 303.30 80
